status,avgMeasuredTime,avgSpeed,extID,medianMeasuredTime,TIMESTAMP,vehicleCount,_id,REPORT_ID
OK,73,59,711,73,2014-08-01T07:50:00,19,20746263,192600
OK,71,61,711,71,2014-08-01T07:55:00,21,20746435,192600
OK,70,61,711,70,2014-08-01T08:00:00,21,20746766,192600
OK,69,62,711,69,2014-08-01T08:05:00,12,20747215,192600
OK,98,44,711,98,2014-08-01T08:10:00,7,20747588,192600
OK,66,65,711,66,2014-08-01T08:15:00,18,20748037,192600
OK,86,50,711,86,2014-08-01T08:20:00,35,20748486,192600
OK,94,46,711,94,2014-08-01T08:25:00,29,20748935,192600
OK,82,52,711,82,2014-08-01T08:30:00,17,20749384,192600
OK,87,49,711,87,2014-08-01T08:35:00,13,20749833,192600
OK,95,45,711,95,2014-08-01T08:40:00,12,20750282,192600
OK,80,54,711,80,2014-08-01T08:45:00,23,20750731,192600
OK,76,57,711,76,2014-08-01T08:50:00,21,20751180,192600
OK,74,58,711,74,2014-08-01T08:55:00,27,20751629,192600
OK,73,59,711,73,2014-08-01T09:00:00,24,20752078,192600
OK,112,38,711,112,2014-08-01T09:05:00,17,20752527,192600
OK,61,71,711,61,2014-08-01T09:10:00,14,20752976,192600
OK,107,40,711,107,2014-08-01T09:15:00,19,20753425,192600
OK,85,50,711,85,2014-08-01T09:20:00,22,20753874,192600
OK,68,63,711,68,2014-08-01T09:25:00,15,20754323,192600
OK,69,62,711,69,2014-08-01T09:30:00,18,20754772,192600
OK,65,66,711,65,2014-08-01T09:35:00,16,20755221,192600
OK,73,59,711,73,2014-08-01T09:40:00,12,20755670,192600
OK,81,53,711,81,2014-08-01T09:45:00,22,20756119,192600
OK,86,50,711,86,2014-08-01T09:50:00,27,20756568,192600
OK,70,61,711,70,2014-08-01T09:55:00,28,20757017,192600
OK,77,56,711,77,2014-08-01T10:00:00,20,20757466,192600
OK,74,58,711,74,2014-08-01T10:05:00,20,20757915,192600
OK,64,67,711,64,2014-08-01T10:10:00,21,20758364,192600
OK,106,40,711,106,2014-08-01T10:15:00,27,20758813,192600
OK,84,51,711,84,2014-08-01T10:20:00,30,20759262,192600
OK,97,44,711,97,2014-08-01T10:25:00,27,20759711,192600
OK,81,53,711,81,2014-08-01T10:30:00,30,20760160,192600
OK,83,52,711,83,2014-08-01T10:35:00,26,20760609,192600
OK,100,43,711,100,2014-08-01T10:40:00,22,20761058,192600
OK,86,50,711,86,2014-08-01T10:45:00,30,20761507,192600
OK,98,44,711,98,2014-08-01T10:50:00,49,20761956,192600
OK,88,49,711,88,2014-08-01T10:55:00,42,20762405,192600
OK,78,55,711,78,2014-08-01T11:00:00,26,20762854,192600
OK,93,46,711,93,2014-08-01T11:05:00,18,20763303,192600
OK,70,61,711,70,2014-08-01T11:10:00,22,20763752,192600
OK,74,58,711,74,2014-08-01T11:15:00,29,20764201,192600
OK,102,42,711,102,2014-08-01T11:20:00,28,20764649,192600
OK,67,64,711,67,2014-08-01T11:25:00,31,20765098,192600
OK,62,69,711,62,2014-08-01T11:30:00,26,20765547,192600
OK,99,43,711,99,2014-08-01T11:35:00,19,20765996,192600
OK,67,64,711,67,2014-08-01T11:40:00,28,20766445,192600
OK,72,60,711,72,2014-08-01T11:45:00,26,20766894,192600
OK,77,56,711,77,2014-08-01T11:50:00,27,20767343,192600
OK,76,57,711,76,2014-08-01T11:55:00,38,20767792,192600
OK,98,44,711,98,2014-08-01T12:00:00,39,20768241,192600
OK,93,46,711,93,2014-08-01T12:05:00,34,20768690,192600
OK,70,61,711,70,2014-08-01T12:10:00,33,20769139,192600
OK,120,36,711,120,2014-08-01T12:15:00,37,20769588,192600
OK,118,36,711,118,2014-08-01T12:20:00,29,20770037,192600
OK,99,43,711,99,2014-08-01T12:25:00,25,20770486,192600
OK,90,48,711,90,2014-08-01T12:30:00,27,20770935,192600
OK,104,41,711,104,2014-08-01T12:35:00,29,20771384,192600
OK,96,45,711,96,2014-08-01T12:40:00,29,20771833,192600
OK,77,56,711,77,2014-08-01T12:45:00,29,20772282,192600
OK,109,39,711,109,2014-08-01T12:50:00,24,20772731,192600
OK,98,44,711,98,2014-08-01T12:55:00,25,20773180,192600
OK,81,53,711,81,2014-08-01T13:00:00,29,20773629,192600
OK,70,61,711,70,2014-08-01T13:05:00,27,20774078,192600
OK,121,35,711,121,2014-08-01T13:10:00,28,20774527,192600
OK,114,38,711,114,2014-08-01T13:15:00,30,20774976,192600
OK,94,46,711,94,2014-08-01T13:20:00,29,20775425,192600
OK,73,59,711,73,2014-08-01T13:25:00,25,20775874,192600
OK,70,61,711,70,2014-08-01T13:30:00,20,20776323,192600
OK,105,41,711,105,2014-08-01T13:35:00,18,20776772,192600
OK,105,41,711,105,2014-08-01T13:40:00,31,20777221,192600
OK,89,48,711,89,2014-08-01T13:45:00,33,20777670,192600
OK,66,65,711,66,2014-08-01T13:50:00,20,20778119,192600
OK,66,65,711,66,2014-08-01T13:55:00,20,20778568,192600
OK,101,42,711,101,2014-08-01T14:00:00,30,20779017,192600
OK,82,52,711,82,2014-08-01T14:05:00,30,20779466,192600
OK,79,54,711,79,2014-08-01T14:10:00,22,20779915,192600
OK,91,47,711,91,2014-08-01T14:15:00,17,20780364,192600
OK,72,60,711,72,2014-08-01T14:20:00,21,20780813,192600
OK,77,56,711,77,2014-08-01T14:25:00,29,20781262,192600
OK,77,56,711,77,2014-08-01T14:30:00,31,20781711,192600
OK,67,64,711,67,2014-08-01T14:35:00,23,20782160,192600
OK,74,58,711,74,2014-08-01T14:40:00,23,20782609,192600
OK,79,54,711,79,2014-08-01T14:45:00,24,20783058,192600
OK,80,54,711,80,2014-08-01T14:50:00,26,20783507,192600
OK,73,59,711,73,2014-08-01T14:55:00,21,20783956,192600
OK,103,42,711,103,2014-08-01T15:00:00,16,20784405,192600
OK,104,41,711,104,2014-08-01T15:05:00,12,20784854,192600
OK,82,52,711,82,2014-08-01T15:10:00,16,20785303,192600
OK,70,61,711,70,2014-08-01T15:15:00,19,20785752,192600
OK,68,63,711,68,2014-08-01T15:20:00,21,20786201,192600
OK,79,54,711,79,2014-08-01T15:25:00,18,20786650,192600
OK,81,53,711,81,2014-08-01T15:30:00,26,20787099,192600
OK,72,60,711,72,2014-08-01T15:35:00,29,20787548,192600
OK,68,63,711,68,2014-08-01T15:40:00,24,20787997,192600
OK,69,62,711,69,2014-08-01T15:45:00,22,20788446,192600
OK,65,66,711,65,2014-08-01T15:50:00,23,20788895,192600
OK,69,62,711,69,2014-08-01T15:55:00,25,20789344,192600
OK,64,67,711,64,2014-08-01T16:00:00,18,20789793,192600
OK,62,69,711,62,2014-08-01T16:05:00,19,20790242,192600
OK,64,67,711,64,2014-08-01T16:10:00,12,20790691,192600
OK,67,64,711,67,2014-08-01T16:15:00,14,20791140,192600
OK,66,65,711,66,2014-08-01T16:20:00,22,20791589,192600
OK,66,65,711,66,2014-08-01T16:25:00,21,20792038,192600
OK,95,45,711,95,2014-08-01T16:30:00,14,20792487,192600
OK,74,58,711,74,2014-08-01T16:35:00,11,20792936,192600
OK,65,66,711,65,2014-08-01T16:40:00,10,20793385,192600
OK,62,69,711,62,2014-08-01T16:45:00,11,20793834,192600
OK,71,61,711,71,2014-08-01T16:50:00,19,20794283,192600
OK,65,66,711,65,2014-08-01T16:55:00,19,20794732,192600
OK,61,71,711,61,2014-08-01T17:00:00,11,20795181,192600
OK,66,65,711,66,2014-08-01T17:05:00,6,20795630,192600
OK,55,78,711,55,2014-08-01T17:10:00,9,20796079,192600
OK,56,77,711,56,2014-08-01T17:15:00,8,20796528,192600
OK,75,57,711,75,2014-08-01T17:20:00,11,20796977,192600
OK,77,56,711,77,2014-08-01T17:25:00,13,20797426,192600
OK,78,55,711,78,2014-08-01T17:30:00,10,20797875,192600
OK,62,69,711,62,2014-08-01T17:35:00,7,20798324,192600
OK,69,62,711,69,2014-08-01T17:40:00,10,20798773,192600
OK,78,55,711,78,2014-08-01T17:45:00,17,20799222,192600
OK,65,66,711,65,2014-08-01T17:50:00,14,20799671,192600
OK,59,73,711,59,2014-08-01T17:55:00,16,20800120,192600
OK,75,57,711,75,2014-08-01T18:00:00,19,20800569,192600
OK,74,58,711,74,2014-08-01T18:05:00,11,20801018,192600
OK,84,51,711,84,2014-08-01T18:10:00,9,20801467,192600
OK,84,51,711,84,2014-08-01T18:15:00,10,20801916,192600
OK,59,73,711,59,2014-08-01T18:20:00,8,20802365,192600
OK,62,69,711,62,2014-08-01T18:25:00,9,20802814,192600
OK,63,68,711,63,2014-08-01T18:30:00,10,20803263,192600
OK,67,64,711,67,2014-08-01T18:35:00,7,20803712,192600
OK,71,61,711,71,2014-08-01T18:40:00,6,20804161,192600
OK,65,66,711,65,2014-08-01T18:45:00,5,20804610,192600
OK,61,71,711,61,2014-08-01T18:50:00,5,20805059,192600
OK,61,71,711,61,2014-08-01T18:55:00,7,20805508,192600
OK,78,55,711,78,2014-08-01T19:00:00,7,20805957,192600
OK,70,61,711,70,2014-08-01T19:05:00,6,20806406,192600
OK,59,73,711,59,2014-08-01T19:10:00,4,20806855,192600
OK,60,72,711,60,2014-08-01T19:15:00,6,20807304,192600
OK,59,73,711,59,2014-08-01T19:20:00,0,20807753,192600
OK,87,49,711,87,2014-08-01T19:25:00,3,20808202,192600
OK,75,57,711,75,2014-08-01T19:30:00,4,20808651,192600
OK,68,63,711,68,2014-08-01T19:35:00,4,20809100,192600
OK,86,50,711,86,2014-08-01T19:40:00,4,20809549,192600
OK,55,78,711,55,2014-08-01T19:45:00,7,20809998,192600
OK,56,77,711,56,2014-08-01T19:50:00,13,20810447,192600
OK,65,66,711,65,2014-08-01T19:55:00,9,20810896,192600
OK,70,61,711,70,2014-08-01T20:00:00,6,20811341,192600
OK,69,62,711,69,2014-08-01T20:05:00,7,20811515,192600
OK,67,64,711,67,2014-08-01T20:10:00,10,20811718,192600
OK,62,69,711,62,2014-08-01T20:15:00,8,20811924,192600
OK,59,73,711,59,2014-08-01T20:20:00,9,20812133,192600
OK,55,78,711,55,2014-08-01T20:25:00,7,20812351,192600
OK,61,71,711,61,2014-08-01T20:30:00,9,20812566,192600
OK,76,57,711,76,2014-08-01T20:35:00,10,20812774,192600
OK,59,73,711,59,2014-08-01T20:40:00,6,20812976,192600
OK,66,65,711,66,2014-08-01T20:45:00,6,20813184,192600
OK,70,61,711,70,2014-08-01T20:50:00,4,20813395,192600
OK,58,74,711,58,2014-08-01T20:55:00,3,20813625,192600
OK,49,88,711,49,2014-08-01T21:00:00,2,20813863,192600
OK,69,62,711,69,2014-08-01T21:05:00,7,20814039,192600
OK,69,62,711,69,2014-08-01T21:10:00,17,20814279,192600
OK,69,62,711,69,2014-08-01T21:15:00,16,20814475,192600
OK,78,55,711,78,2014-08-01T21:20:00,8,20814682,192600
OK,79,54,711,79,2014-08-01T21:25:00,4,20814911,192600
OK,69,62,711,69,2014-08-01T21:30:00,7,20815187,192600
OK,64,67,711,64,2014-08-01T21:35:00,9,20815420,192600
OK,51,84,711,51,2014-08-01T21:40:00,7,20815644,192600
OK,55,78,711,55,2014-08-01T21:45:00,5,20815881,192600
OK,70,61,711,70,2014-08-01T21:50:00,3,20816122,192600
OK,58,74,711,58,2014-08-01T21:55:00,7,20816357,192600
OK,45,96,711,45,2014-08-01T22:00:00,0,20816625,192600
OK,52,83,711,52,2014-08-01T22:05:00,2,20817074,192600
OK,59,73,711,59,2014-08-01T22:10:00,6,20817396,192600
OK,59,73,711,59,2014-08-01T22:15:00,7,20817825,192600
OK,63,68,711,63,2014-08-01T22:20:00,3,20818115,192600
OK,62,69,711,62,2014-08-01T22:25:00,2,20818431,192600
OK,61,71,711,61,2014-08-01T22:30:00,1,20818765,192600
OK,68,63,711,68,2014-08-01T22:35:00,1,20819067,192600
OK,68,63,711,68,2014-08-01T22:40:00,1,20819249,192600
OK,70,61,711,70,2014-08-01T22:45:00,1,20819537,192600
OK,70,61,711,70,2014-08-01T22:50:00,3,20819772,192600
OK,64,67,711,64,2014-08-01T22:55:00,2,20820025,192600
OK,65,66,711,65,2014-08-01T23:00:00,1,20820201,192600
OK,65,66,711,65,2014-08-01T23:05:00,3,20820454,192600
OK,66,65,711,66,2014-08-01T23:10:00,2,20820684,192600
OK,79,54,711,79,2014-08-01T23:15:00,0,20820872,192600
OK,85,50,711,85,2014-08-01T23:20:00,1,20821122,192600
OK,85,50,711,85,2014-08-01T23:25:00,1,20821300,192600
OK,62,69,711,62,2014-08-01T23:30:00,2,20821526,192600
OK,62,69,711,62,2014-08-01T23:35:00,2,20821771,192600
OK,69,62,711,69,2014-08-01T23:40:00,1,20821950,192600
OK,59,73,711,59,2014-08-01T23:45:00,3,20822173,192600
OK,59,73,711,59,2014-08-01T23:50:00,3,20822440,192600
OK,60,72,711,60,2014-08-01T23:55:00,2,20822766,192600
OK,57,76,711,57,2014-08-02T00:00:00,1,20823064,192600
OK,57,76,711,57,2014-08-02T00:05:00,0,20823513,192600
OK,52,83,711,52,2014-08-02T00:10:00,1,20823962,192600
OK,52,83,711,52,2014-08-02T00:15:00,0,20824411,192600
OK,52,83,711,52,2014-08-02T00:20:00,0,20824860,192600
OK,53,81,711,53,2014-08-02T00:25:00,3,20825309,192600
OK,53,81,711,53,2014-08-02T00:30:00,3,20825758,192600
OK,41,105,711,41,2014-08-02T00:35:00,0,20826207,192600
OK,41,105,711,41,2014-08-02T00:40:00,0,20826656,192600
OK,53,81,711,53,2014-08-02T00:45:00,2,20827105,192600
OK,53,81,711,53,2014-08-02T00:50:00,2,20827554,192600
OK,53,81,711,53,2014-08-02T00:55:00,0,20828003,192600
OK,53,81,711,53,2014-08-02T01:00:00,0,20828452,192600
OK,50,86,711,50,2014-08-02T01:05:00,1,20828901,192600
OK,50,86,711,50,2014-08-02T01:10:00,0,20829350,192600
OK,55,78,711,55,2014-08-02T01:15:00,3,20829799,192600
OK,47,92,711,47,2014-08-02T01:20:00,1,20830248,192600
OK,47,92,711,47,2014-08-02T01:25:00,0,20830697,192600
OK,56,77,711,56,2014-08-02T01:30:00,1,20831146,192600
OK,56,77,711,56,2014-08-02T01:35:00,0,20831595,192600
OK,56,77,711,56,2014-08-02T01:40:00,0,20832044,192600
OK,56,77,711,56,2014-08-02T01:45:00,0,20832493,192600
OK,59,73,711,59,2014-08-02T01:50:00,1,20832942,192600
OK,44,98,711,44,2014-08-02T01:55:00,1,20833391,192600
OK,42,103,711,42,2014-08-02T02:00:00,2,20833840,192600
OK,41,105,711,41,2014-08-02T02:05:00,1,20834289,192600
OK,41,105,711,41,2014-08-02T02:10:00,0,20834738,192600
OK,55,78,711,55,2014-08-02T02:15:00,1,20835187,192600
OK,55,78,711,55,2014-08-02T02:20:00,0,20835636,192600
OK,50,86,711,50,2014-08-02T02:25:00,1,20836085,192600
OK,50,86,711,50,2014-08-02T02:30:00,0,20836534,192600
OK,50,86,711,50,2014-08-02T02:35:00,0,20836983,192600
OK,50,86,711,50,2014-08-02T02:40:00,0,20837432,192600
OK,59,73,711,59,2014-08-02T02:45:00,1,20837881,192600
OK,59,73,711,59,2014-08-02T02:50:00,1,20838330,192600
OK,59,73,711,59,2014-08-02T02:55:00,0,20838779,192600
OK,59,73,711,59,2014-08-02T03:00:00,0,20839228,192600
OK,32,135,711,32,2014-08-02T03:05:00,0,20839677,192600
OK,55,78,711,55,2014-08-02T03:10:00,3,20840126,192600
OK,57,76,711,57,2014-08-02T03:15:00,2,20840575,192600
OK,52,83,711,52,2014-08-02T03:20:00,0,20841024,192600
OK,52,83,711,52,2014-08-02T03:25:00,0,20841473,192600
OK,52,83,711,52,2014-08-02T03:30:00,0,20841922,192600
OK,52,83,711,52,2014-08-02T03:35:00,0,20842371,192600
OK,58,74,711,58,2014-08-02T03:40:00,1,20842820,192600
OK,58,74,711,58,2014-08-02T03:45:00,0,20843269,192600
OK,58,74,711,58,2014-08-02T03:50:00,0,20843718,192600
OK,60,72,711,60,2014-08-02T03:55:00,1,20844167,192600
OK,62,69,711,62,2014-08-02T04:00:00,1,20844616,192600
OK,63,68,711,63,2014-08-02T04:05:00,3,20844747,192600
OK,61,71,711,61,2014-08-02T04:10:00,2,20845077,192600
OK,61,71,711,61,2014-08-02T04:15:00,0,20845257,192600
OK,42,103,711,42,2014-08-02T04:20:00,1,20845613,192600
OK,64,67,711,64,2014-08-02T04:30:00,2,20846169,192600
OK,57,76,711,57,2014-08-02T04:35:00,1,20846536,192600
OK,61,71,711,61,2014-08-02T04:40:00,1,20846919,192600
OK,61,71,711,61,2014-08-02T04:45:00,1,20847178,192600
OK,61,71,711,61,2014-08-02T04:50:00,0,20847544,192600
OK,54,80,711,54,2014-08-02T04:55:00,3,20847901,192600
OK,54,80,711,54,2014-08-02T05:00:00,3,20848261,192600
OK,53,81,711,53,2014-08-02T05:05:00,3,20848425,192600
OK,58,74,711,58,2014-08-02T05:10:00,8,20848779,192600
OK,64,67,711,64,2014-08-02T05:15:00,4,20848971,192600
OK,60,72,711,60,2014-08-02T05:20:00,3,20849315,192600
OK,71,61,711,71,2014-08-02T05:25:00,3,20849840,192600
OK,95,45,711,95,2014-08-02T05:35:00,3,20850112,192600
OK,48,90,711,48,2014-08-02T05:40:00,1,20850405,192600
OK,56,77,711,56,2014-08-02T05:45:00,3,20850706,192600
OK,59,73,711,59,2014-08-02T05:50:00,3,20851064,192600
OK,63,68,711,63,2014-08-02T05:55:00,3,20851318,192600
OK,69,62,711,69,2014-08-02T06:00:00,2,20851621,192600
OK,59,73,711,59,2014-08-02T06:05:00,2,20852070,192600
OK,60,72,711,60,2014-08-02T06:10:00,3,20852519,192600
OK,66,65,711,66,2014-08-02T06:15:00,4,20852968,192600
OK,79,54,711,79,2014-08-02T06:20:00,5,20853417,192600
OK,79,54,711,79,2014-08-02T06:25:00,3,20853866,192600
OK,82,52,711,82,2014-08-02T06:30:00,6,20854315,192600
OK,96,45,711,96,2014-08-02T06:35:00,5,20854764,192600
OK,79,54,711,79,2014-08-02T06:40:00,2,20855213,192600
OK,84,51,711,84,2014-08-02T06:45:00,3,20855662,192600
OK,91,47,711,91,2014-08-02T06:50:00,3,20856111,192600
OK,74,58,711,74,2014-08-02T06:55:00,2,20856560,192600
OK,103,42,711,103,2014-08-02T07:00:00,1,20857009,192600
OK,103,42,711,103,2014-08-02T07:05:00,0,20857458,192600
OK,61,71,711,61,2014-08-02T07:10:00,7,20857907,192600
OK,61,71,711,61,2014-08-02T07:15:00,12,20858356,192600
OK,61,71,711,61,2014-08-02T07:20:00,11,20858805,192600
OK,59,73,711,59,2014-08-02T07:25:00,6,20859254,192600
OK,92,47,711,92,2014-08-02T07:30:00,5,20859703,192600
OK,77,56,711,77,2014-08-02T07:35:00,8,20860152,192600
OK,62,69,711,62,2014-08-02T07:40:00,10,20860601,192600
OK,58,74,711,58,2014-08-02T07:45:00,12,20861050,192600
OK,63,68,711,63,2014-08-02T07:50:00,11,20861499,192600
OK,70,61,711,70,2014-08-02T07:55:00,8,20861948,192600
OK,77,56,711,77,2014-08-02T08:00:00,9,20862397,192600
OK,64,67,711,64,2014-08-02T08:05:00,12,20862846,192600
OK,56,77,711,56,2014-08-02T08:10:00,12,20863295,192600
OK,68,63,711,68,2014-08-02T08:15:00,17,20863744,192600
OK,68,63,711,68,2014-08-02T08:20:00,18,20864193,192600
OK,72,60,711,72,2014-08-02T08:25:00,36,20864642,192600
OK,84,51,711,84,2014-08-02T08:30:00,42,20865091,192600
OK,93,46,711,93,2014-08-02T08:35:00,25,20865540,192600
OK,91,47,711,91,2014-08-02T08:40:00,18,20865989,192600
OK,113,38,711,113,2014-08-02T08:45:00,17,20866438,192600
OK,76,57,711,76,2014-08-02T08:50:00,14,20866887,192600
OK,75,57,711,75,2014-08-02T08:55:00,16,20867336,192600
OK,68,63,711,68,2014-08-02T09:00:00,18,20867785,192600
OK,77,56,711,77,2014-08-02T09:05:00,8,20868234,192600
OK,90,48,711,90,2014-08-02T09:10:00,8,20868683,192600
OK,83,52,711,83,2014-08-02T09:15:00,8,20869132,192600
OK,76,57,711,76,2014-08-02T09:20:00,11,20869581,192600
OK,79,54,711,79,2014-08-02T09:25:00,15,20870030,192600
OK,72,60,711,72,2014-08-02T09:30:00,16,20870479,192600
OK,66,65,711,66,2014-08-02T09:35:00,17,20870928,192600
OK,65,66,711,65,2014-08-02T09:40:00,13,20871377,192600
OK,60,72,711,60,2014-08-02T09:45:00,12,20871826,192600
OK,74,58,711,74,2014-08-02T09:50:00,18,20872275,192600
OK,70,61,711,70,2014-08-02T09:55:00,16,20872724,192600
OK,70,61,711,70,2014-08-02T10:00:00,17,20873173,192600
OK,73,59,711,73,2014-08-02T10:05:00,15,20873622,192600
OK,74,58,711,74,2014-08-02T10:10:00,13,20874071,192600
OK,77,56,711,77,2014-08-02T10:15:00,17,20874520,192600
OK,64,67,711,64,2014-08-02T10:20:00,22,20874969,192600
OK,83,52,711,83,2014-08-02T10:25:00,29,20875418,192600
OK,100,43,711,100,2014-08-02T10:30:00,32,20875867,192600
OK,99,43,711,99,2014-08-02T10:35:00,43,20876316,192600
OK,87,49,711,87,2014-08-02T10:40:00,31,20876765,192600
OK,86,50,711,86,2014-08-02T10:45:00,18,20877214,192600
OK,92,47,711,92,2014-08-02T10:50:00,24,20877663,192600
OK,82,52,711,82,2014-08-02T10:55:00,16,20878112,192600
OK,79,54,711,79,2014-08-02T11:00:00,10,20878561,192600
OK,85,50,711,85,2014-08-02T11:05:00,12,20879010,192600
OK,83,52,711,83,2014-08-02T11:10:00,19,20879459,192600
OK,81,53,711,81,2014-08-02T11:15:00,14,20879908,192600
OK,72,60,711,72,2014-08-02T11:20:00,10,20880357,192600
OK,64,67,711,64,2014-08-02T11:25:00,19,20880806,192600
OK,76,57,711,76,2014-08-02T11:30:00,15,20881255,192600
OK,73,59,711,73,2014-08-02T11:35:00,14,20881704,192600
OK,75,57,711,75,2014-08-02T11:40:00,14,20882153,192600
OK,73,59,711,73,2014-08-02T11:45:00,19,20882602,192600
OK,67,64,711,67,2014-08-02T11:50:00,23,20883051,192600
OK,65,66,711,65,2014-08-02T11:55:00,19,20883500,192600
OK,88,49,711,88,2014-08-02T12:00:00,19,20883949,192600
OK,76,57,711,76,2014-08-02T12:05:00,23,20884398,192600
OK,76,57,711,76,2014-08-02T12:10:00,34,20884847,192600
OK,86,50,711,86,2014-08-02T12:15:00,47,20885296,192600
OK,74,58,711,74,2014-08-02T12:20:00,36,20885745,192600
OK,84,51,711,84,2014-08-02T12:25:00,11,20886194,192600
OK,67,64,711,67,2014-08-02T12:30:00,8,20886643,192600
OK,90,48,711,90,2014-08-02T12:35:00,9,20887092,192600
OK,91,47,711,91,2014-08-02T12:40:00,12,20887541,192600
OK,65,66,711,65,2014-08-02T12:45:00,14,20887990,192600
OK,72,60,711,72,2014-08-02T12:50:00,17,20888439,192600
OK,60,72,711,60,2014-08-02T12:55:00,13,20888888,192600
OK,75,57,711,75,2014-08-02T13:00:00,12,20889337,192600
OK,70,61,711,70,2014-08-02T13:05:00,13,20889786,192600
OK,65,66,711,65,2014-08-02T13:10:00,16,20890235,192600
OK,60,72,711,60,2014-08-02T13:15:00,16,20890684,192600
OK,71,61,711,71,2014-08-02T13:20:00,23,20891133,192600
OK,63,68,711,63,2014-08-02T13:25:00,15,20891582,192600
OK,81,53,711,81,2014-08-02T13:30:00,8,20892031,192600
OK,83,52,711,83,2014-08-02T13:35:00,17,20892480,192600
OK,95,45,711,95,2014-08-02T13:40:00,10,20892929,192600
OK,59,73,711,59,2014-08-02T13:45:00,13,20893378,192600
OK,78,55,711,78,2014-08-02T13:50:00,23,20893827,192600
OK,77,56,711,77,2014-08-02T13:55:00,25,20894276,192600
OK,74,58,711,74,2014-08-02T14:00:00,24,20894725,192600
OK,84,51,711,84,2014-08-02T14:05:00,31,20895174,192600
OK,87,49,711,87,2014-08-02T14:10:00,15,20895623,192600
OK,74,58,711,74,2014-08-02T14:15:00,18,20896072,192600
OK,70,61,711,70,2014-08-02T14:20:00,24,20896521,192600
OK,77,56,711,77,2014-08-02T14:25:00,24,20896970,192600
OK,64,67,711,64,2014-08-02T14:30:00,21,20897419,192600
OK,64,67,711,64,2014-08-02T14:35:00,19,20897868,192600
OK,88,49,711,88,2014-08-02T14:40:00,7,20898317,192600
OK,62,69,711,62,2014-08-02T14:45:00,5,20898766,192600
OK,77,56,711,77,2014-08-02T14:50:00,11,20899215,192600
OK,76,57,711,76,2014-08-02T14:55:00,14,20899664,192600
OK,73,59,711,73,2014-08-02T15:00:00,12,20900113,192600
OK,77,56,711,77,2014-08-02T15:05:00,18,20900562,192600
OK,63,68,711,63,2014-08-02T15:10:00,21,20901011,192600
OK,63,68,711,63,2014-08-02T15:15:00,13,20901460,192600
OK,63,68,711,63,2014-08-02T15:20:00,9,20901909,192600
OK,61,71,711,61,2014-08-02T15:25:00,12,20902358,192600
OK,86,50,711,86,2014-08-02T15:30:00,12,20902807,192600
OK,81,53,711,81,2014-08-02T15:35:00,13,20903256,192600
OK,72,60,711,72,2014-08-02T15:40:00,16,20903705,192600
OK,73,59,711,73,2014-08-02T15:45:00,21,20904154,192600
OK,76,57,711,76,2014-08-02T15:50:00,23,20904603,192600
OK,84,51,711,84,2014-08-02T15:55:00,20,20905052,192600
OK,83,52,711,83,2014-08-02T16:00:00,24,20905501,192600
OK,66,65,711,66,2014-08-02T16:05:00,14,20905950,192600
OK,91,47,711,91,2014-08-02T16:10:00,8,20906399,192600
OK,63,68,711,63,2014-08-02T16:15:00,9,20906848,192600
OK,59,73,711,59,2014-08-02T16:20:00,11,20907297,192600
OK,60,72,711,60,2014-08-02T16:25:00,8,20907746,192600
OK,56,77,711,56,2014-08-02T16:30:00,4,20908195,192600
OK,77,56,711,77,2014-08-02T16:35:00,12,20908644,192600
OK,67,64,711,67,2014-08-02T16:40:00,11,20909093,192600
OK,53,81,711,53,2014-08-02T16:45:00,6,20909542,192600
OK,77,56,711,77,2014-08-02T16:50:00,10,20909991,192600
OK,82,52,711,82,2014-08-02T16:55:00,14,20910440,192600
OK,87,49,711,87,2014-08-02T17:00:00,8,20910889,192600
OK,71,61,711,71,2014-08-02T17:05:00,9,20911338,192600
OK,76,57,711,76,2014-08-02T17:10:00,10,20911787,192600
OK,62,69,711,62,2014-08-02T17:15:00,12,20912236,192600
OK,64,67,711,64,2014-08-02T17:20:00,15,20912685,192600
OK,92,47,711,92,2014-08-02T17:25:00,9,20913134,192600
OK,67,64,711,67,2014-08-02T17:30:00,4,20913583,192600
OK,70,61,711,70,2014-08-02T17:35:00,4,20914032,192600
OK,75,57,711,75,2014-08-02T17:40:00,5,20914481,192600
OK,82,52,711,82,2014-08-02T17:45:00,3,20914930,192600
OK,64,67,711,64,2014-08-02T17:50:00,1,20915379,192600
OK,68,63,711,68,2014-08-02T17:55:00,4,20915828,192600
OK,72,60,711,72,2014-08-02T18:00:00,7,20916277,192600
OK,70,61,711,70,2014-08-02T18:05:00,5,20916726,192600
OK,66,65,711,66,2014-08-02T18:10:00,3,20917175,192600
OK,71,61,711,71,2014-08-02T18:15:00,5,20917624,192600
OK,58,74,711,58,2014-08-02T18:20:00,6,20918073,192600
OK,56,77,711,56,2014-08-02T18:25:00,12,20918522,192600
OK,56,77,711,56,2014-08-02T18:30:00,10,20918971,192600
OK,82,52,711,82,2014-08-02T18:35:00,4,20919420,192600
OK,64,67,711,64,2014-08-02T18:40:00,11,20919869,192600
OK,62,69,711,62,2014-08-02T18:45:00,12,20920318,192600
OK,65,66,711,65,2014-08-02T18:50:00,5,20920767,192600
OK,61,71,711,61,2014-08-02T18:55:00,7,20921216,192600
OK,75,57,711,75,2014-08-02T19:00:00,2,20921665,192600
OK,74,58,711,74,2014-08-02T19:05:00,3,20922114,192600
OK,66,65,711,66,2014-08-02T19:10:00,8,20922563,192600
OK,64,67,711,64,2014-08-02T19:15:00,11,20923012,192600
OK,63,68,711,63,2014-08-02T19:20:00,6,20923461,192600
OK,66,65,711,66,2014-08-02T19:25:00,7,20923910,192600
OK,64,67,711,64,2014-08-02T19:30:00,5,20924359,192600
OK,68,63,711,68,2014-08-02T19:35:00,6,20924808,192600
OK,61,71,711,61,2014-08-02T19:40:00,4,20925257,192600